Seeley, CA

2:24 AM PST on December 09, 2016 (GMT -0800)
El Centro Naval Air Facility

Weather History for KNJK - November, 2012

Change the Weather History Date:

Monday, November 5, 2012

  Actual Average Record
Temperature  
Mean Temperature 75 °F -  
Max Temperature 93 °F 78 °F 93 °F (2012)
Min Temperature 57 °F 53 °F 46 °F (2015)
Cooling Degree Days 10    
Growing Degree Days 25 (Base 50)    
Moisture  
Dew Point 29 °F    
Average Humidity 21    
Maximum Humidity 35    
Minimum Humidity 9    
Precipitation  
Precipitation 0.00 in - - ()
Sea Level Pressure  
Sea Level Pressure 30.05 in    
Wind  
Wind Speed 6 mph (West)    
Max Wind Speed 9 mph    
Max Gust Speed -    
Visibility 10 miles    
Events      
Averages and records for this station are not official NWS values.
T = Trace of Precipitation, MM = Missing Value Source: NWS Daily Summary

Daily Weather History Graph

Daily Weather History Graph

Search for Another Location

Airport or City:

Trip Planner

Search our weather history database for the weather conditions in past years. The results will help you decide how hot, cold, wet, or windy it might be!

Date:

Astronomy

Nov. 05, 2012 Rise Set
Actual Time 6:04 AM PST 4:47 PM PST
Civil Twilight 5:38 AM PST 5:13 PM PST
Nautical Twilight 5:09 AM PST 5:42 PM PST
Astronomical Twilight 4:40 AM PST 6:11 PM PST
Moon 10:28 PM PST (11/5) 11:25 AM PST (11/5)
Length of Visible Light 11h 34m
Length of Day
10h 43m
Waning Gibbous, 62% of the Moon is Illuminated
Nov 5
Waning Gibbous
Nov 6
Last Quarter
Nov 13
New
Nov 20
First Quarter
Nov 28
Full

Hourly Weather History & Observations

Time (PST) Temp. Dew Point Humidity Pressure Visibility Wind Dir Wind Speed Gust Speed Precip Events Conditions
12:56 AM 62.1 °F 28.0 °F 28% 30.06 in 10.0 mi West 6.9 mph - N/A   Clear
1:56 AM 61.0 °F 27.0 °F 27% 30.06 in 10.0 mi SSW 6.9 mph - N/A   Clear
2:56 AM 62.1 °F 27.0 °F 26% 30.05 in 10.0 mi West 8.1 mph - N/A   Clear
3:56 AM 57.9 °F 30.0 °F 35% 30.05 in 10.0 mi West 8.1 mph - N/A   Clear
4:56 AM 57.9 °F 27.0 °F 31% 30.06 in 10.0 mi West 8.1 mph - N/A   Clear
5:56 AM 59.0 °F 30.0 °F 33% 30.07 in 10.0 mi WSW 8.1 mph - N/A   Clear
6:56 AM 61.0 °F 27.0 °F 27% 30.09 in 10.0 mi West 8.1 mph - N/A   Clear
7:56 AM 70.0 °F 30.9 °F 24% 30.11 in 10.0 mi West 6.9 mph - N/A   Clear
8:56 AM 79.0 °F 30.0 °F 17% 30.11 in 10.0 mi West 5.8 mph - N/A   Clear
9:56 AM 87.1 °F 30.9 °F 13% 30.11 in 10.0 mi Calm Calm - N/A   Clear
10:56 AM 91.0 °F 28.9 °F 11% 30.09 in 10.0 mi North 4.6 mph - N/A   Clear
11:56 AM 91.0 °F 28.0 °F 10% 30.06 in 10.0 mi Calm Calm - N/A   Clear
12:56 PM 93.0 °F 27.0 °F 9% 30.04 in 10.0 mi NE 6.9 mph - N/A   Clear
1:56 PM 93.9 °F 26.1 °F 9% 30.02 in 10.0 mi North 5.8 mph - N/A   Clear
2:56 PM 93.0 °F 28.0 °F 10% 30.02 in 10.0 mi NNE 4.6 mph - N/A   Clear
3:56 PM 91.0 °F 25.0 °F 9% 30.01 in 10.0 mi Calm Calm - N/A   Clear
4:56 PM 84.0 °F 34.0 °F 17% 30.01 in 10.0 mi SW 3.5 mph - N/A   Clear
5:56 PM 77.0 °F 33.1 °F 20% 30.02 in 10.0 mi SW 3.5 mph - N/A   Clear
6:56 PM 75.0 °F 33.1 °F 22% 30.01 in 10.0 mi West 4.6 mph - N/A   Clear
7:56 PM 70.0 °F 32.0 °F 25% 30.02 in 10.0 mi West 8.1 mph - N/A   Clear
8:56 PM 66.9 °F 30.9 °F 26% 30.03 in 10.0 mi WSW 5.8 mph - N/A   Clear
9:56 PM 66.9 °F 27.0 °F 22% 30.03 in 10.0 mi WSW 8.1 mph - N/A   Clear
10:56 PM 64.9 °F 28.9 °F 26% 30.03 in 10.0 mi West 8.1 mph - N/A   Clear
11:56 PM 66.0 °F 28.9 °F 25% 30.03 in 10.0 mi WSW 9.2 mph - N/A   Clear